owner,sensor,date,latitude,longitude,vertical_datum,sea_water_practical_salinity,qcFlag 
TCOON,ioos:station:TCOON:076:1,2012-12-01T01:30:00Z,27.8918,-97.6105,0.0,16.3,1111122 
TCOON,ioos:station:TCOON:076:1,2012-12-01T02:00:00Z,27.8918,-97.6105,0.0,16.2,1111122 
TCOON,ioos:station:TCOON:076:1,2012-12-01T03:00:00Z,27.8918,-97.6105,0.0,16.3,1111122 
TCOON,ioos:station:TCOON:076:1,2012-12-01T04:00:00Z,27.8918,-97.6105,0.0,16.2,1111122 
TCOON,ioos:station:TCOON:076:1,2012-12-01T04:30:00Z,27.8918,-97.6105,0.0,16.3,1111122 
TCOON,ioos:station:TCOON:076:1,2012-12-01T07:00:00Z,27.8918,-97.6105,0.0,16.3,1111122 
TCOON,ioos:station:TCOON:076:1,2012-12-01T08:00:00Z,27.8918,-97.6105,0.0,16.4,1111122 
TCOON,ioos:station:TCOON:076:1,2012-12-01T09:30:00Z,27.8918,-97.6105,0.0,16.4,1111122 
TCOON,ioos:station:TCOON:076:1,2012-12-01T10:00:00Z,27.8918,-97.6105,0.0,16.4,1111122 
TCOON,ioos:station:TCOON:076:1,2012-12-01T11:00:00Z,27.8918,-97.6105,0.0,16.4,1111122 
TCOON,ioos:station:TCOON:076:1,2012-12-01T11:30:00Z,27.8918,-97.6105,0.0,16.4,1111122 
TCOON,ioos:station:TCOON:076:1,2012-12-01T12:00:00Z,27.8918,-97.6105,0.0,16.4,1111122 
TCOON,ioos:station:TCOON:076:1,2012-12-01T13:30:00Z,27.8918,-97.6105,0.0,16.2,1111122 
TCOON,ioos:station:TCOON:076:1,2012-12-01T14:30:00Z,27.8918,-97.6105,0.0,15.8,1111122 
TCOON,ioos:station:TCOON:076:1,2012-12-01T15:00:00Z,27.8918,-97.6105,0.0,15.7,1111122 
TCOON,ioos:station:TCOON:076:1,2012-12-01T15:30:00Z,27.8918,-97.6105,0.0,15.7,1111122 
TCOON,ioos:station:TCOON:076:1,2012-12-01T16:30:00Z,27.8918,-97.6105,0.0,15.6,1111122 
TCOON,ioos:station:TCOON:076:1,2012-12-01T17:00:00Z,27.8918,-97.6105,0.0,15.6,1111122 
TCOON,ioos:station:TCOON:076:1,2012-12-01T17:30:00Z,27.8918,-97.6105,0.0,15.6,1111122 
TCOON,ioos:station:TCOON:076:1,2012-12-01T18:30:00Z,27.8918,-97.6105,0.0,15.5,1111122 
TCOON,ioos:station:TCOON:076:1,2012-12-01T19:00:00Z,27.8918,-97.6105,0.0,15.5,1111122 
TCOON,ioos:station:TCOON:076:1,2012-12-01T20:00:00Z,27.8918,-97.6105,0.0,15.6,1111122 
TCOON,ioos:station:TCOON:076:1,2012-12-01T21:00:00Z,27.8918,-97.6105,0.0,15.6,1111122 
TCOON,ioos:station:TCOON:076:1,2012-12-01T21:30:00Z,27.8918,-97.6105,0.0,15.6,1111122 
TCOON,ioos:station:TCOON:076:1,2012-12-01T22:00:00Z,27.8918,-97.6105,0.0,15.6,1111122 
TCOON,ioos:station:TCOON:076:1,2012-12-01T23:00:00Z,27.8918,-97.6105,0.0,15.8,1111122 
TCOON,ioos:station:TCOON:076:1,2012-12-01T23:30:00Z,27.8918,-97.6105,0.0,15.9,1111122 
TCOON,ioos:station:TCOON:076:1,2012-12-02T00:00:00Z,27.8918,-97.6105,0.0,16.0,1111122 
TCOON,ioos:station:TCOON:076:1,2012-12-02T01:00:00Z,27.8918,-97.6105,0.0,16.1,1111122 
TCOON,ioos:station:TCOON:076:1,2012-12-02T01:30:00Z,27.8918,-97.6105,0.0,16.0,1111122 
TCOON,ioos:station:TCOON:076:1,2012-12-02T03:30:00Z,27.8918,-97.6105,0.0,16.0,1111122 
TCOON,ioos:station:TCOON:076:1,2012-12-02T04:30:00Z,27.8918,-97.6105,0.0,16.1,1111122 
TCOON,ioos:station:TCOON:076:1,2012-12-02T05:30:00Z,27.8918,-97.6105,0.0,16.1,1111122 
TCOON,ioos:station:TCOON:076:1,2012-12-02T06:00:00Z,27.8918,-97.6105,0.0,16.1,1111122 
TCOON,ioos:station:TCOON:076:1,2012-12-02T06:30:00Z,27.8918,-97.6105,0.0,16.1,1111122 
TCOON,ioos:station:TCOON:076:1,2012-12-02T08:30:00Z,27.8918,-97.6105,0.0,16.2,1111122 
TCOON,ioos:station:TCOON:076:1,2012-12-02T09:00:00Z,27.8918,-97.6105,0.0,16.2,1111122 
TCOON,ioos:station:TCOON:076:1,2012-12-02T12:00:00Z,27.8918,-97.6105,0.0,15.7,1111122 
TCOON,ioos:station:TCOON:076:1,2012-12-02T13:00:00Z,27.8918,-97.6105,0.0,15.8,1111122 
TCOON,ioos:station:TCOON:076:1,2012-12-02T14:00:00Z,27.8918,-97.6105,0.0,15.7,1111122 
TCOON,ioos:station:TCOON:076:1,2012-12-02T15:00:00Z,27.8918,-97.6105,0.0,15.7,1111122 
TCOON,ioos:station:TCOON:076:1,2012-12-02T15:30:00Z,27.8918,-97.6105,0.0,15.7,1111122 
TCOON,ioos:station:TCOON:076:1,2012-12-02T17:00:00Z,27.8918,-97.6105,0.0,15.7,1111122 
TCOON,ioos:station:TCOON:076:1,2012-12-02T18:00:00Z,27.8918,-97.6105,0.0,15.6,1111122 
TCOON,ioos:station:TCOON:076:1,2012-12-02T19:30:00Z,27.8918,-97.6105,0.0,15.6,1111122 
TCOON,ioos:station:TCOON:076:1,2012-12-02T20:00:00Z,27.8918,-97.6105,0.0,15.6,1111122 
TCOON,ioos:station:TCOON:076:1,2012-12-02T21:30:00Z,27.8918,-97.6105,0.0,15.7,1111122 
TCOON,ioos:station:TCOON:076:1,2012-12-02T23:30:00Z,27.8918,-97.6105,0.0,15.9,1111122 
TCOON,ioos:station:TCOON:076:1,2012-12-03T00:00:00Z,27.8918,-97.6105,0.0,15.9,1111122 
TCOON,ioos:station:TCOON:076:1,2012-12-03T03:00:00Z,27.8918,-97.6105,0.0,16.0,1111122 
TCOON,ioos:station:TCOON:076:1,2012-12-03T03:30:00Z,27.8918,-97.6105,0.0,16.0,1111122 
TCOON,ioos:station:TCOON:076:1,2012-12-03T04:30:00Z,27.8918,-97.6105,0.0,16.0,1111122 
TCOON,ioos:station:TCOON:076:1,2012-12-03T06:30:00Z,27.8918,-97.6105,0.0,16.2,1111122 
TCOON,ioos:station:TCOON:076:1,2012-12-03T07:00:00Z,27.8918,-97.6105,0.0,16.2,1111122 
TCOON,ioos:station:TCOON:076:1,2012-12-03T08:00:00Z,27.8918,-97.6105,0.0,16.2,1111122 
TCOON,ioos:station:TCOON:076:1,2012-12-03T08:30:00Z,27.8918,-97.6105,0.0,16.3,1111122 
TCOON,ioos:station:TCOON:076:1,2012-12-03T09:30:00Z,27.8918,-97.6105,0.0,16.2,1111122 
TCOON,ioos:station:TCOON:076:1,2012-12-03T10:00:00Z,27.8918,-97.6105,0.0,16.3,1111122 
TCOON,ioos:station:TCOON:076:1,2012-12-03T12:00:00Z,27.8918,-97.6105,0.0,16.0,1111122 
TCOON,ioos:station:TCOON:076:1,2012-12-03T12:30:00Z,27.8918,-97.6105,0.0,16.1,1111122 
TCOON,ioos:station:TCOON:076:1,2012-12-03T13:00:00Z,27.8918,-97.6105,0.0,16.1,1111122 
TCOON,ioos:station:TCOON:076:1,2012-12-03T13:30:00Z,27.8918,-97.6105,0.0,16.1,1111122 
TCOON,ioos:station:TCOON:076:1,2012-12-03T14:30:00Z,27.8918,-97.6105,0.0,16.1,1111122 
TCOON,ioos:station:TCOON:076:1,2012-12-03T15:00:00Z,27.8918,-97.6105,0.0,15.9,1111122 
TCOON,ioos:station:TCOON:076:1,2012-12-03T16:00:00Z,27.8918,-97.6105,0.0,15.8,1111122 
TCOON,ioos:station:TCOON:076:1,2012-12-03T16:30:00Z,27.8918,-97.6105,0.0,15.8,1111122 
TCOON,ioos:station:TCOON:076:1,2012-12-03T17:00:00Z,27.8918,-97.6105,0.0,15.7,1111122 
TCOON,ioos:station:TCOON:076:1,2012-12-03T18:30:00Z,27.8918,-97.6105,0.0,15.7,1111122 
TCOON,ioos:station:TCOON:076:1,2012-12-03T19:00:00Z,27.8918,-97.6105,0.0,15.7,1111122 
TCOON,ioos:station:TCOON:076:1,2012-12-03T21:30:00Z,27.8918,-97.6105,0.0,15.7,1111122 
TCOON,ioos:station:TCOON:076:1,2012-12-03T22:00:00Z,27.8918,-97.6105,0.0,15.7,1111122 
TCOON,ioos:station:TCOON:076:1,2012-12-03T23:00:00Z,27.8918,-97.6105,0.0,15.8,1111122 
TCOON,ioos:station:TCOON:076:1,2012-12-04T00:30:00Z,27.8918,-97.6105,0.0,15.9,1111122 
TCOON,ioos:station:TCOON:076:1,2012-12-04T01:30:00Z,27.8918,-97.6105,0.0,15.9,1111122 
TCOON,ioos:station:TCOON:076:1,2012-12-04T02:00:00Z,27.8918,-97.6105,0.0,15.9,1111122 
TCOON,ioos:station:TCOON:076:1,2012-12-04T02:30:00Z,27.8918,-97.6105,0.0,15.9,1111122 
TCOON,ioos:station:TCOON:076:1,2012-12-04T03:00:00Z,27.8918,-97.6105,0.0,15.9,1111122 
TCOON,ioos:station:TCOON:076:1,2012-12-04T05:00:00Z,27.8918,-97.6105,0.0,15.9,1111122 
TCOON,ioos:station:TCOON:076:1,2012-12-04T06:00:00Z,27.8918,-97.6105,0.0,15.9,1111122 
TCOON,ioos:station:TCOON:076:1,2012-12-04T06:30:00Z,27.8918,-97.6105,0.0,16.0,1111122 
TCOON,ioos:station:TCOON:076:1,2012-12-04T07:30:00Z,27.8918,-97.6105,0.0,16.1,1111122 
TCOON,ioos:station:TCOON:076:1,2012-12-04T08:30:00Z,27.8918,-97.6105,0.0,16.3,1111122 
TCOON,ioos:station:TCOON:076:1,2012-12-04T10:00:00Z,27.8918,-97.6105,0.0,16.1,1111122 
TCOON,ioos:station:TCOON:076:1,2012-12-04T10:30:00Z,27.8918,-97.6105,0.0,16.1,1111122 
TCOON,ioos:station:TCOON:076:1,2012-12-04T11:30:00Z,27.8918,-97.6105,0.0,16.1,1111122 
TCOON,ioos:station:TCOON:076:1,2012-12-04T12:00:00Z,27.8918,-97.6105,0.0,16.0,1111122 
TCOON,ioos:station:TCOON:076:1,2012-12-04T13:00:00Z,27.8918,-97.6105,0.0,16.1,1111122 
TCOON,ioos:station:TCOON:076:1,2012-12-04T13:30:00Z,27.8918,-97.6105,0.0,16.1,1111122 
TCOON,ioos:station:TCOON:076:1,2012-12-04T14:30:00Z,27.8918,-97.6105,0.0,16.2,1111122 
TCOON,ioos:station:TCOON:076:1,2012-12-04T15:00:00Z,27.8918,-97.6105,0.0,16.1,1111122 
TCOON,ioos:station:TCOON:076:1,2012-12-04T15:30:00Z,27.8918,-97.6105,0.0,15.9,1111122 
TCOON,ioos:station:TCOON:076:1,2012-12-04T16:30:00Z,27.8918,-97.6105,0.0,15.7,1111122 
TCOON,ioos:station:TCOON:076:1,2012-12-04T18:00:00Z,27.8918,-97.6105,0.0,15.6,1111122 
TCOON,ioos:station:TCOON:076:1,2012-12-04T18:30:00Z,27.8918,-97.6105,0.0,15.6,1111122 
TCOON,ioos:station:TCOON:076:1,2012-12-04T21:00:00Z,27.8918,-97.6105,0.0,15.5,1111122 
TCOON,ioos:station:TCOON:076:1,2012-12-04T22:30:00Z,27.8918,-97.6105,0.0,15.4,1111122 
TCOON,ioos:station:TCOON:076:1,2012-12-04T23:00:00Z,27.8918,-97.6105,0.0,15.4,1111122 
TCOON,ioos:station:TCOON:076:1,2012-12-05T00:00:00Z,27.8918,-97.6105,0.0,15.4,1111122 
TCOON,ioos:station:TCOON:076:1,2012-12-05T00:30:00Z,27.8918,-97.6105,0.0,15.5,1111122 
TCOON,ioos:station:TCOON:076:1,2012-12-05T02:30:00Z,27.8918,-97.6105,0.0,15.4,1111122 
TCOON,ioos:station:TCOON:076:1,2012-12-05T03:00:00Z,27.8918,-97.6105,0.0,15.5,1111122 
TCOON,ioos:station:TCOON:076:1,2012-12-05T03:30:00Z,27.8918,-97.6105,0.0,15.4,1111122 
TCOON,ioos:station:TCOON:076:1,2012-12-05T04:30:00Z,27.8918,-97.6105,0.0,15.7,1111122 
TCOON,ioos:station:TCOON:076:1,2012-12-05T05:30:00Z,27.8918,-97.6105,0.0,15.6,1111122 
TCOON,ioos:station:TCOON:076:1,2012-12-05T08:00:00Z,27.8918,-97.6105,0.0,15.7,1111122 
TCOON,ioos:station:TCOON:076:1,2012-12-05T10:30:00Z,27.8918,-97.6105,0.0,15.7,1111122 
TCOON,ioos:station:TCOON:076:1,2012-12-05T14:30:00Z,27.8918,-97.6105,0.0,15.6,1111122 
TCOON,ioos:station:TCOON:076:1,2012-12-05T15:00:00Z,27.8918,-97.6105,0.0,15.7,1111122 
TCOON,ioos:station:TCOON:076:1,2012-12-05T16:30:00Z,27.8918,-97.6105,0.0,15.6,1111122 
TCOON,ioos:station:TCOON:076:1,2012-12-05T18:00:00Z,27.8918,-97.6105,0.0,15.6,1111122 
TCOON,ioos:station:TCOON:076:1,2012-12-05T19:00:00Z,27.8918,-97.6105,0.0,15.6,1111122 
TCOON,ioos:station:TCOON:076:1,2012-12-05T20:30:00Z,27.8918,-97.6105,0.0,15.6,1111122 
TCOON,ioos:station:TCOON:076:1,2012-12-05T21:00:00Z,27.8918,-97.6105,0.0,15.5,1111122 
TCOON,ioos:station:TCOON:076:1,2012-12-05T21:30:00Z,27.8918,-97.6105,0.0,15.5,1111122 
TCOON,ioos:station:TCOON:076:1,2012-12-05T22:00:00Z,27.8918,-97.6105,0.0,15.5,1111122 
TCOON,ioos:station:TCOON:076:1,2012-12-05T23:00:00Z,27.8918,-97.6105,0.0,15.5,1111122 
TCOON,ioos:station:TCOON:076:1,2012-12-06T00:00:00Z,27.8918,-97.6105,0.0,15.5,1111122 
TCOON,ioos:station:TCOON:076:1,2012-12-06T00:30:00Z,27.8918,-97.6105,0.0,15.6,1111122 
TCOON,ioos:station:TCOON:076:1,2012-12-06T01:00:00Z,27.8918,-97.6105,0.0,15.6,1111122 
TCOON,ioos:station:TCOON:076:1,2012-12-06T02:30:00Z,27.8918,-97.6105,0.0,15.9,1111122 
TCOON,ioos:station:TCOON:076:1,2012-12-06T03:30:00Z,27.8918,-97.6105,0.0,16.0,1111122 
TCOON,ioos:station:TCOON:076:1,2012-12-06T04:00:00Z,27.8918,-97.6105,0.0,16.0,1111122 
TCOON,ioos:station:TCOON:076:1,2012-12-06T05:00:00Z,27.8918,-97.6105,0.0,16.0,1111122 
TCOON,ioos:station:TCOON:076:1,2012-12-06T05:30:00Z,27.8918,-97.6105,0.0,16.0,1111122 
TCOON,ioos:station:TCOON:076:1,2012-12-06T06:30:00Z,27.8918,-97.6105,0.0,16.0,1111122 
TCOON,ioos:station:TCOON:076:1,2012-12-06T07:00:00Z,27.8918,-97.6105,0.0,16.2,1111122 
TCOON,ioos:station:TCOON:076:1,2012-12-06T07:30:00Z,27.8918,-97.6105,0.0,16.2,1111122 
TCOON,ioos:station:TCOON:076:1,2012-12-06T08:00:00Z,27.8918,-97.6105,0.0,16.2,1111122 
TCOON,ioos:station:TCOON:076:1,2012-12-06T08:30:00Z,27.8918,-97.6105,0.0,16.2,1111122 
TCOON,ioos:station:TCOON:076:1,2012-12-06T09:00:00Z,27.8918,-97.6105,0.0,16.1,1111122 
TCOON,ioos:station:TCOON:076:1,2012-12-06T09:30:00Z,27.8918,-97.6105,0.0,16.0,1111122 
TCOON,ioos:station:TCOON:076:1,2012-12-06T10:00:00Z,27.8918,-97.6105,0.0,15.9,1111122 
TCOON,ioos:station:TCOON:076:1,2012-12-06T11:30:00Z,27.8918,-97.6105,0.0,15.8,1111122 
TCOON,ioos:station:TCOON:076:1,2012-12-06T13:00:00Z,27.8918,-97.6105,0.0,15.8,1111122 
TCOON,ioos:station:TCOON:076:1,2012-12-06T14:00:00Z,27.8918,-97.6105,0.0,15.8,1111122 
TCOON,ioos:station:TCOON:076:1,2012-12-06T15:00:00Z,27.8918,-97.6105,0.0,15.8,1111122 
TCOON,ioos:station:TCOON:076:1,2012-12-06T16:00:00Z,27.8918,-97.6105,0.0,15.8,1111122 
TCOON,ioos:station:TCOON:076:1,2012-12-06T17:30:00Z,27.8918,-97.6105,0.0,15.9,1111122 
TCOON,ioos:station:TCOON:076:1,2012-12-06T18:00:00Z,27.8918,-97.6105,0.0,15.9,1111122 
TCOON,ioos:station:TCOON:076:1,2012-12-06T18:30:00Z,27.8918,-97.6105,0.0,16.0,1111122 
TCOON,ioos:station:TCOON:076:1,2012-12-06T21:00:00Z,27.8918,-97.6105,0.0,16.4,1111122 
TCOON,ioos:station:TCOON:076:1,2012-12-06T21:30:00Z,27.8918,-97.6105,0.0,16.1,1111122 
TCOON,ioos:station:TCOON:076:1,2012-12-06T22:00:00Z,27.8918,-97.6105,0.0,16.2,1111122 
TCOON,ioos:station:TCOON:076:1,2012-12-06T22:30:00Z,27.8918,-97.6105,0.0,16.1,1111122 
TCOON,ioos:station:TCOON:076:1,2012-12-06T23:00:00Z,27.8918,-97.6105,0.0,16.2,1111122 
TCOON,ioos:station:TCOON:076:1,2012-12-06T23:30:00Z,27.8918,-97.6105,0.0,16.2,1111122 
TCOON,ioos:station:TCOON:076:1,2012-12-07T00:00:00Z,27.8918,-97.6105,0.0,16.2,1111122 
TCOON,ioos:station:TCOON:076:1,2012-12-07T01:00:00Z,27.8918,-97.6105,0.0,16.2,1111122 
TCOON,ioos:station:TCOON:076:1,2012-12-07T02:00:00Z,27.8918,-97.6105,0.0,16.1,1111122 
TCOON,ioos:station:TCOON:076:1,2012-12-07T02:30:00Z,27.8918,-97.6105,0.0,16.1,1111122 
TCOON,ioos:station:TCOON:076:1,2012-12-07T03:00:00Z,27.8918,-97.6105,0.0,16.1,1111122 
TCOON,ioos:station:TCOON:076:1,2012-12-07T03:30:00Z,27.8918,-97.6105,0.0,16.2,1111122 
TCOON,ioos:station:TCOON:076:1,2012-12-07T04:30:00Z,27.8918,-97.6105,0.0,16.2,1111122 
TCOON,ioos:station:TCOON:076:1,2012-12-07T06:30:00Z,27.8918,-97.6105,0.0,16.4,1111122 
TCOON,ioos:station:TCOON:076:1,2012-12-07T07:00:00Z,27.8918,-97.6105,0.0,16.4,1111122 
TCOON,ioos:station:TCOON:076:1,2012-12-07T07:30:00Z,27.8918,-97.6105,0.0,16.4,1111122 
TCOON,ioos:station:TCOON:076:1,2012-12-07T08:30:00Z,27.8918,-97.6105,0.0,16.4,1111122 
TCOON,ioos:station:TCOON:076:1,2012-12-07T09:30:00Z,27.8918,-97.6105,0.0,16.2,1111122 
TCOON,ioos:station:TCOON:076:1,2012-12-07T10:00:00Z,27.8918,-97.6105,0.0,16.1,1111122 
TCOON,ioos:station:TCOON:076:1,2012-12-07T13:00:00Z,27.8918,-97.6105,0.0,16.0,1111122 
TCOON,ioos:station:TCOON:076:1,2012-12-07T13:30:00Z,27.8918,-97.6105,0.0,16.0,1111122 
TCOON,ioos:station:TCOON:076:1,2012-12-07T15:30:00Z,27.8918,-97.6105,0.0,15.9,1111122 
TCOON,ioos:station:TCOON:076:1,2012-12-07T16:00:00Z,27.8918,-97.6105,0.0,15.9,1111122 
TCOON,ioos:station:TCOON:076:1,2012-12-07T16:30:00Z,27.8918,-97.6105,0.0,15.9,1111122 
TCOON,ioos:station:TCOON:076:1,2012-12-07T18:00:00Z,27.8918,-97.6105,0.0,15.9,1111122 
TCOON,ioos:station:TCOON:076:1,2012-12-07T19:00:00Z,27.8918,-97.6105,0.0,15.9,1111122 
TCOON,ioos:station:TCOON:076:1,2012-12-07T22:00:00Z,27.8918,-97.6105,0.0,16.7,1111122 
TCOON,ioos:station:TCOON:076:1,2012-12-07T22:30:00Z,27.8918,-97.6105,0.0,16.6,1111122 
TCOON,ioos:station:TCOON:076:1,2012-12-07T23:30:00Z,27.8918,-97.6105,0.0,16.9,1111122 
TCOON,ioos:station:TCOON:076:1,2012-12-08T00:00:00Z,27.8918,-97.6105,0.0,16.8,1111122 
TCOON,ioos:station:TCOON:076:1,2012-12-08T00:30:00Z,27.8918,-97.6105,0.0,16.4,1111122 
TCOON,ioos:station:TCOON:076:1,2012-12-08T02:00:00Z,27.8918,-97.6105,0.0,16.3,1111122 
TCOON,ioos:station:TCOON:076:1,2012-12-08T02:30:00Z,27.8918,-97.6105,0.0,16.3,1111122 
TCOON,ioos:station:TCOON:076:1,2012-12-08T04:30:00Z,27.8918,-97.6105,0.0,16.3,1111122 
TCOON,ioos:station:TCOON:076:1,2012-12-08T05:00:00Z,27.8918,-97.6105,0.0,16.4,1111122 
TCOON,ioos:station:TCOON:076:1,2012-12-08T05:30:00Z,27.8918,-97.6105,0.0,16.5,1111122 
TCOON,ioos:station:TCOON:076:1,2012-12-08T06:30:00Z,27.8918,-97.6105,0.0,16.8,1111122 
TCOON,ioos:station:TCOON:076:1,2012-12-08T07:30:00Z,27.8918,-97.6105,0.0,16.7,1111122 
TCOON,ioos:station:TCOON:076:1,2012-12-08T08:30:00Z,27.8918,-97.6105,0.0,16.8,1111122 
TCOON,ioos:station:TCOON:076:1,2012-12-08T10:00:00Z,27.8918,-97.6105,0.0,16.1,1111122 
TCOON,ioos:station:TCOON:076:1,2012-12-08T11:00:00Z,27.8918,-97.6105,0.0,15.9,1111122 
TCOON,ioos:station:TCOON:076:1,2012-12-08T11:30:00Z,27.8918,-97.6105,0.0,15.9,1111122 
TCOON,ioos:station:TCOON:076:1,2012-12-08T14:00:00Z,27.8918,-97.6105,0.0,15.8,1111122 
TCOON,ioos:station:TCOON:076:1,2012-12-08T15:30:00Z,27.8918,-97.6105,0.0,15.8,1111122 
TCOON,ioos:station:TCOON:076:1,2012-12-08T16:00:00Z,27.8918,-97.6105,0.0,15.8,1111122 
TCOON,ioos:station:TCOON:076:1,2012-12-08T17:30:00Z,27.8918,-97.6105,0.0,15.7,1111122 
TCOON,ioos:station:TCOON:076:1,2012-12-08T18:00:00Z,27.8918,-97.6105,0.0,15.8,1111122 
TCOON,ioos:station:TCOON:076:1,2012-12-08T18:30:00Z,27.8918,-97.6105,0.0,15.8,1111122 
TCOON,ioos:station:TCOON:076:1,2012-12-08T19:30:00Z,27.8918,-97.6105,0.0,15.8,1111122 
TCOON,ioos:station:TCOON:076:1,2012-12-08T20:00:00Z,27.8918,-97.6105,0.0,15.9,1111122 
TCOON,ioos:station:TCOON:076:1,2012-12-08T21:00:00Z,27.8918,-97.6105,0.0,16.0,1111122 
TCOON,ioos:station:TCOON:076:1,2012-12-08T22:00:00Z,27.8918,-97.6105,0.0,16.4,1111122 
TCOON,ioos:station:TCOON:076:1,2012-12-09T00:00:00Z,27.8918,-97.6105,0.0,16.8,1111122 
TCOON,ioos:station:TCOON:076:1,2012-12-09T01:00:00Z,27.8918,-97.6105,0.0,16.9,1111122 
TCOON,ioos:station:TCOON:076:1,2012-12-09T01:30:00Z,27.8918,-97.6105,0.0,16.8,1111122 
TCOON,ioos:station:TCOON:076:1,2012-12-09T02:00:00Z,27.8918,-97.6105,0.0,16.7,1111122 
TCOON,ioos:station:TCOON:076:1,2012-12-09T02:30:00Z,27.8918,-97.6105,0.0,16.5,1111122 
TCOON,ioos:station:TCOON:076:1,2012-12-09T03:00:00Z,27.8918,-97.6105,0.0,16.5,1111122 
TCOON,ioos:station:TCOON:076:1,2012-12-09T04:00:00Z,27.8918,-97.6105,0.0,16.5,1111122 
TCOON,ioos:station:TCOON:076:1,2012-12-09T04:30:00Z,27.8918,-97.6105,0.0,16.4,1111122 
TCOON,ioos:station:TCOON:076:1,2012-12-09T05:00:00Z,27.8918,-97.6105,0.0,16.4,1111122 
TCOON,ioos:station:TCOON:076:1,2012-12-09T07:00:00Z,27.8918,-97.6105,0.0,16.2,1111122 
TCOON,ioos:station:TCOON:076:1,2012-12-09T08:00:00Z,27.8918,-97.6105,0.0,16.3,1111122 
TCOON,ioos:station:TCOON:076:1,2012-12-09T08:30:00Z,27.8918,-97.6105,0.0,16.4,1111122 
TCOON,ioos:station:TCOON:076:1,2012-12-09T09:30:00Z,27.8918,-97.6105,0.0,16.4,1111122 
TCOON,ioos:station:TCOON:076:1,2012-12-09T10:00:00Z,27.8918,-97.6105,0.0,16.2,1111122 
TCOON,ioos:station:TCOON:076:1,2012-12-09T11:00:00Z,27.8918,-97.6105,0.0,16.0,1111122 
TCOON,ioos:station:TCOON:076:1,2012-12-09T15:00:00Z,27.8918,-97.6105,0.0,15.8,1111122 
TCOON,ioos:station:TCOON:076:1,2012-12-09T15:30:00Z,27.8918,-97.6105,0.0,15.8,1111122 
TCOON,ioos:station:TCOON:076:1,2012-12-09T17:00:00Z,27.8918,-97.6105,0.0,15.8,1111122 
TCOON,ioos:station:TCOON:076:1,2012-12-09T17:30:00Z,27.8918,-97.6105,0.0,15.8,1111122 
TCOON,ioos:station:TCOON:076:1,2012-12-09T19:00:00Z,27.8918,-97.6105,0.0,15.7,1111122 
TCOON,ioos:station:TCOON:076:1,2012-12-09T19:30:00Z,27.8918,-97.6105,0.0,15.7,1111122 
TCOON,ioos:station:TCOON:076:1,2012-12-09T21:00:00Z,27.8918,-97.6105,0.0,15.9,1111122 
TCOON,ioos:station:TCOON:076:1,2012-12-09T21:30:00Z,27.8918,-97.6105,0.0,16.0,1111122 
TCOON,ioos:station:TCOON:076:1,2012-12-09T23:30:00Z,27.8918,-97.6105,0.0,16.5,1111122 
TCOON,ioos:station:TCOON:076:1,2012-12-10T01:30:00Z,27.8918,-97.6105,0.0,16.6,1111122 
TCOON,ioos:station:TCOON:076:1,2012-12-10T02:00:00Z,27.8918,-97.6105,0.0,16.6,1111122 
TCOON,ioos:station:TCOON:076:1,2012-12-10T02:30:00Z,27.8918,-97.6105,0.0,16.6,1111122 
TCOON,ioos:station:TCOON:076:1,2012-12-10T03:00:00Z,27.8918,-97.6105,0.0,16.6,1111122 
TCOON,ioos:station:TCOON:076:1,2012-12-10T03:30:00Z,27.8918,-97.6105,0.0,16.6,1111122 
TCOON,ioos:station:TCOON:076:1,2012-12-10T04:00:00Z,27.8918,-97.6105,0.0,16.6,1111122 
TCOON,ioos:station:TCOON:076:1,2012-12-10T04:30:00Z,27.8918,-97.6105,0.0,16.6,1111122 
TCOON,ioos:station:TCOON:076:1,2012-12-10T05:00:00Z,27.8918,-97.6105,0.0,16.4,1111122 
TCOON,ioos:station:TCOON:076:1,2012-12-10T05:30:00Z,27.8918,-97.6105,0.0,16.3,1111122 
TCOON,ioos:station:TCOON:076:1,2012-12-10T06:00:00Z,27.8918,-97.6105,0.0,16.2,1111122 
TCOON,ioos:station:TCOON:076:1,2012-12-10T07:30:00Z,27.8918,-97.6105,0.0,16.0,1111122 
TCOON,ioos:station:TCOON:076:1,2012-12-10T08:30:00Z,27.8918,-97.6105,0.0,15.9,1111122 
TCOON,ioos:station:TCOON:076:1,2012-12-10T11:30:00Z,27.8918,-97.6105,0.0,15.8,1111122 
TCOON,ioos:station:TCOON:076:1,2012-12-10T13:00:00Z,27.8918,-97.6105,0.0,15.4,1111122 
TCOON,ioos:station:TCOON:076:1,2012-12-10T15:30:00Z,27.8918,-97.6105,0.0,14.7,1111122 
TCOON,ioos:station:TCOON:076:1,2012-12-10T17:30:00Z,27.8918,-97.6105,0.0,14.8,1111122 
TCOON,ioos:station:TCOON:076:1,2012-12-10T20:00:00Z,27.8918,-97.6105,0.0,14.5,1111122 
TCOON,ioos:station:TCOON:076:1,2012-12-10T20:30:00Z,27.8918,-97.6105,0.0,14.3,1111122 
TCOON,ioos:station:TCOON:076:1,2012-12-10T22:30:00Z,27.8918,-97.6105,0.0,14.9,1111122 
TCOON,ioos:station:TCOON:076:1,2012-12-10T23:30:00Z,27.8918,-97.6105,0.0,15.0,1111122 
TCOON,ioos:station:TCOON:076:1,2012-12-11T00:00:00Z,27.8918,-97.6105,0.0,15.2,1111122 
TCOON,ioos:station:TCOON:076:1,2012-12-11T02:30:00Z,27.8918,-97.6105,0.0,16.1,1111122 
TCOON,ioos:station:TCOON:076:1,2012-12-11T03:00:00Z,27.8918,-97.6105,0.0,16.3,1111122 
TCOON,ioos:station:TCOON:076:1,2012-12-11T04:00:00Z,27.8918,-97.6105,0.0,16.4,1111122 
TCOON,ioos:station:TCOON:076:1,2012-12-11T11:30:00Z,27.8918,-97.6105,0.0,15.5,1111122 
TCOON,ioos:station:TCOON:076:1,2012-12-11T12:00:00Z,27.8918,-97.6105,0.0,15.6,1111122 
TCOON,ioos:station:TCOON:076:1,2012-12-11T12:30:00Z,27.8918,-97.6105,0.0,15.6,1111122 
TCOON,ioos:station:TCOON:076:1,2012-12-11T14:30:00Z,27.8918,-97.6105,0.0,15.6,1111122 
TCOON,ioos:station:TCOON:076:1,2012-12-11T15:00:00Z,27.8918,-97.6105,0.0,15.6,1111122 
TCOON,ioos:station:TCOON:076:1,2012-12-11T16:00:00Z,27.8918,-97.6105,0.0,15.7,1111122 
TCOON,ioos:station:TCOON:076:1,2012-12-11T16:30:00Z,27.8918,-97.6105,0.0,15.7,1111122 
TCOON,ioos:station:TCOON:076:1,2012-12-11T17:00:00Z,27.8918,-97.6105,0.0,15.6,1111122 
TCOON,ioos:station:TCOON:076:1,2012-12-11T18:00:00Z,27.8918,-97.6105,0.0,15.7,1111122 
TCOON,ioos:station:TCOON:076:1,2012-12-11T18:30:00Z,27.8918,-97.6105,0.0,15.8,1111122 
TCOON,ioos:station:TCOON:076:1,2012-12-11T19:00:00Z,27.8918,-97.6105,0.0,15.8,1111122 
TCOON,ioos:station:TCOON:076:1,2012-12-11T20:00:00Z,27.8918,-97.6105,0.0,15.8,1111122 
TCOON,ioos:station:TCOON:076:1,2012-12-11T22:30:00Z,27.8918,-97.6105,0.0,15.9,1111122 
TCOON,ioos:station:TCOON:076:1,2012-12-11T23:00:00Z,27.8918,-97.6105,0.0,16.0,1111122 
TCOON,ioos:station:TCOON:076:1,2012-12-12T03:00:00Z,27.8918,-97.6105,0.0,16.5,1111122 
TCOON,ioos:station:TCOON:076:1,2012-12-12T03:30:00Z,27.8918,-97.6105,0.0,16.5,1111122 
TCOON,ioos:station:TCOON:076:1,2012-12-12T04:00:00Z,27.8918,-97.6105,0.0,16.5,1111122 
TCOON,ioos:station:TCOON:076:1,2012-12-12T06:00:00Z,27.8918,-97.6105,0.0,16.5,1111122 
TCOON,ioos:station:TCOON:076:1,2012-12-12T06:30:00Z,27.8918,-97.6105,0.0,16.5,1111122 
TCOON,ioos:station:TCOON:076:1,2012-12-12T07:00:00Z,27.8918,-97.6105,0.0,16.5,1111122 
TCOON,ioos:station:TCOON:076:1,2012-12-12T08:30:00Z,27.8918,-97.6105,0.0,16.5,1111122 
TCOON,ioos:station:TCOON:076:1,2012-12-12T09:30:00Z,27.8918,-97.6105,0.0,16.3,1111122 
TCOON,ioos:station:TCOON:076:1,2012-12-12T11:30:00Z,27.8918,-97.6105,0.0,15.9,1111122 
TCOON,ioos:station:TCOON:076:1,2012-12-12T12:00:00Z,27.8918,-97.6105,0.0,15.8,1111122 
TCOON,ioos:station:TCOON:076:1,2012-12-12T13:30:00Z,27.8918,-97.6105,0.0,15.7,1111122 
TCOON,ioos:station:TCOON:076:1,2012-12-12T14:30:00Z,27.8918,-97.6105,0.0,15.7,1111122 
TCOON,ioos:station:TCOON:076:1,2012-12-12T15:30:00Z,27.8918,-97.6105,0.0,15.6,1111122 
TCOON,ioos:station:TCOON:076:1,2012-12-12T22:00:00Z,27.8918,-97.6105,0.0,15.7,1111122 
TCOON,ioos:station:TCOON:076:1,2012-12-12T22:30:00Z,27.8918,-97.6105,0.0,16.0,1111122 
TCOON,ioos:station:TCOON:076:1,2012-12-12T23:00:00Z,27.8918,-97.6105,0.0,16.0,1111122 
TCOON,ioos:station:TCOON:076:1,2012-12-12T23:30:00Z,27.8918,-97.6105,0.0,16.0,1111122 
TCOON,ioos:station:TCOON:076:1,2012-12-13T00:30:00Z,27.8918,-97.6105,0.0,16.1,1111122 
TCOON,ioos:station:TCOON:076:1,2012-12-13T02:30:00Z,27.8918,-97.6105,0.0,16.1,1111122 
TCOON,ioos:station:TCOON:076:1,2012-12-13T04:00:00Z,27.8918,-97.6105,0.0,16.1,1111122 